Location: Unspecified
(0.0000°N, 0.0000°E)
Time: 00:54:04
(UTC+00:00)

Altair - Visible Passes

Search period start: 26 May 2019 00:00
Search period end: 05 June 2019 00:00
Orbit: 1501 x 1683 km, 47.2° (Epoch: 24 May)

Date Brightness Start Highest point End Pass type
(mag) Time Alt. Az. Time Alt. Az. Time Alt. Az.
26 May 9.4 02:06:48 16° N 02:06:48 16° N 02:09:18 10° N visible
27 May 9.5 01:42:43 15° N 01:42:43 15° N 01:44:30 10° N visible
28 May 9.7 01:18:35 13° N 01:18:35 13° N 01:19:38 10° N visible
29 May 9.8 00:54:24 11° NNE 00:54:24 11° NNE 00:54:45 10° NNE visible
03 Jun 9.2 20:02:55 10° S 20:03:27 12° S 20:03:27 12° S visible
04 Jun 8.8 19:38:13 10° S 19:40:43 16° SSE 19:40:43 16° SSE visible
